FENGYUN 1C DEB

Satellite information

Favourite Embed

Satellite Type and Status

DEBRISIN ORBIT

Key statistics

Satellite FENGYUN 1C DEB at a glance.

Uptime

9662

Days in orbit

Revolutions

≈ 14.1

Per day

Orbit

SSO

Sun Synchronous Orbit

Inclination

97.6

Latest

Satellite identification and parameters

Extended collection of information and parameters for FENGYUN 1C DEB.

Object identification

Identified? True

Debris? True

Object name: FENGYUN 1C DEB

International designator: 1999-025BCS

Object number (NORAD): 31000

Object ID (CCSDS): 31000

Country: PEOPLES REPUBLIC OF CHINA (PRC)

Current information (Y/N): Y

RCS size: SMALL

Orbital parameters

Period: 102.167 minutes

Inclination: 97.5736 deg

SMA: 7239.37 km

Apoapsis: 980.086 km

Periapsis: 742.385 km

RAAN: 328.5004 deg

Eccentricy: 0.01641722

Argument of periapsis: 228.3075 deg

Mean anomaly: 163.8672 deg

Mean motion: 14.09456139 rev/day

Mean motion (dot): 0.00001579 rev/day2

B* drag term: 0.00081556616 1/REarth

Two-line elements (TLE)

Creation date: Oct. 18, 2025, 10:30 a.m.

Reference frame: TEME

Reference center: EARTH

Epoch: Oct. 18, 2025, 1:01 a.m. UTC

TLE line 0: 0 FENGYUN 1C DEB

TLE line 1: 1 31000U 99025BCS 25291.04243258 .00001579 00000-0 81557-3 0 9997

TLE line 2: 2 31000 97.5736 328.5004 0164172 228.3075 163.8672 14.09456139691723

Live tracking on map

Real-time ground track for satellite FENGYUN 1C DEB.

In-orbit conjunctions

A list of the most updated potential collisions computed for object FENGYUN 1C DEB.

Target Orbit TCA Probability of collision Miss distance Type
CZ-6A DEB LEO 2024-12-25 07:07:08 0.0001101914 411.0 (m) DEBRIS

Associated space launch

Chinese polar orbiting meteorological satellite

FENGYUN 1C DEB was lifted into orbit during the mission ‘Long March 4B | Feng Yun 1C’, on board a Long March 4B space rocket.

The launch took place on May 10, 1999, 1:33 a.m. from Launch Complex 7.

For more information about the launch, click the button.

Launch to space Long March 4B | Feng Yun 1C
Long March 4B | Feng Yun 1C

Agency: N/A

Status: Launch Successful

Launch date: May 10, 1999, 1:33 a.m. UTC

Rocket: Long March 4B

Launch pad: Launch Complex 7

Location: Taiyuan Satellite Launch Center, People's Republic of China

...

Latest news about this satellite

There are no fresh news available about this satellite. Check back as we update our databases every day.


Newsletter sign-up

Weekly statistics, charts and insights to help you stay on top of the space industry.